CST,Max TemperatureF,Mean TemperatureF,Min TemperatureF,Max Dew PointF,MeanDew PointF,Min DewpointF,Max Humidity, Mean Humidity, Min Humidity, Max Sea Level PressureIn, Mean Sea Level PressureIn, Min Sea Level PressureIn, Max VisibilityMiles, Mean VisibilityMiles, Min VisibilityMiles, Max Wind SpeedMPH, Mean Wind SpeedMPH, Max Gust SpeedMPH,PrecipitationIn, CloudCover, Events, WindDirDegrees
2013-2-1,25,12,0,15,5,-7,83,68,59,30.51,30.34,30.14,10,10,10,15,6,22,0.00,3,,184
2013-2-2,42,34,26,33,25,16,86,73,66,30.24,30.16,30.08,10,10,10,15,6,,0.00,5,,298
2013-2-3,46,36,25,27,24,20,81,62,40,30.28,30.10,29.84,10,10,10,14,9,21,0.00,0,,222
2013-2-4,37,30,24,27,23,20,88,75,60,30.03,29.95,29.79,10,10,7,18,9,28,0.00,2,,336
2013-2-5,52,38,24,32,26,21,88,68,40,30.11,30.00,29.91,10,9,5,15,5,23,0.00,2,,306
2013-2-6,62,45,28,44,33,24,90,66,35,30.10,29.97,29.85,10,10,4,18,7,23,0.04,3,Rain,146
2013-2-7,50,40,30,45,35,24,97,81,66,30.26,30.00,29.85,10,8,2,18,7,25,0.03,7,Rain,330
2013-2-8,39,33,27,28,25,23,89,78,60,30.38,30.30,30.19,10,10,7,14,7,21,0.00,5,,91
2013-2-9,51,40,28,36,31,25,93,77,54,30.22,29.98,29.70,10,8,5,21,14,28,0.01,4,Rain,143
2013-2-10,48,41,34,43,33,21,93,75,50,29.86,29.55,29.36,10,9,3,30,19,46,0.01,7,Rain,212
2013-2-11,44,35,24,24,22,19,81,63,43,30.20,30.10,29.90,10,10,10,21,13,37,0.00,2,,292
2013-2-12,50,34,17,26,20,14,92,63,29,30.19,30.06,29.95,10,10,8,13,5,17,0.00,0,,227
2013-2-13,55,40,24,27,23,19,81,57,31,29.94,29.85,29.78,10,10,10,13,8,18,0.00,0,,271
2013-2-14,48,38,28,31,26,20,88,64,37,30.25,30.07,29.83,10,8,1,22,12,38,0.00,4,Snow,314
2013-2-15,35,24,12,25,18,9,93,74,39,30.42,30.35,30.28,10,7,0,15,9,23,0.00,5,Fog-Snow,344
2013-2-16,34,24,15,23,19,12,96,79,54,30.36,30.23,30.05,10,10,8,12,6,18,0.05,6,Snow,216
2013-2-17,57,40,24,33,26,18,81,61,39,30.04,29.86,29.61,10,10,10,18,8,24,0.00,0,,141
2013-2-18,46,35,23,31,26,16,87,69,54,30.10,29.77,29.52,10,8,1,25,13,40,0.00,4,Snow,325
2013-2-19,28,21,12,15,6,1,81,57,33,30.41,30.30,30.13,10,10,10,21,11,30,0.00,0,,320
2013-2-20,25,17,9,8,5,1,73,58,46,30.43,30.33,30.21,10,10,9,14,8,,0.00,5,,74
2013-2-21,24,22,19,20,17,8,93,85,51,30.24,29.92,29.79,10,3,0,25,15,34,0.00,8,Fog-Snow,69
2013-2-22,24,18,10,19,14,7,93,79,65,30.11,29.98,29.80,10,8,1,15,9,,0.09,2,Snow,288
2013-2-23,36,18,0,24,12,-4,92,77,61,30.09,30.00,29.94,10,8,2,10,4,,0.04,0,,160
2013-2-24,41,28,15,28,21,14,93,76,55,30.06,30.00,29.96,10,8,2,9,4,,0.00,3,,93
2013-2-25,39,36,32,29,27,25,82,73,62,30.04,29.96,29.83,10,9,3,16,9,24,0.00,4,,16
2013-2-26,33,32,30,29,28,26,93,87,81,29.91,29.78,29.70,4,2,0,20,14,30,0.02,8,Fog-Snow,345
2013-2-27,37,32,26,28,24,21,93,77,57,30.10,29.97,29.86,10,6,2,21,13,30,0.04,6,Snow,316
2013-2-28,32,30,27,25,22,20,78,74,72,30.25,30.19,30.07,10,10,10,18,14,26,0.00,8,,325